QPF
0.00 0.00 0.00 0.00 0.00 0.00 0.01 0.01 0.01 0.01 0.01 0.02 0.03 0.12 0.20 0.20 0.30 0.26 0.27 0.27 0.26 0.21 0.15 0.19 0.22 0.19 0.14 0.12 0.10 0.06 0.04 0.03 0.02 0.03 0.03 0.02 0.01 0.01 0.01 0.01 0.01 0.03 0.03 0.02
0.00 0.00 0.00 0.00 0.00 0.00 0.01 0.01 0.01 0.01 0.01 0.03 0.05 0.09 0.21 0.21 0.20 0.19 0.17 0.18 0.14 0.14 0.12 0.11 0.10 0.10 0.08 0.08 0.07 0.05 0.04 0.03 0.02 0.02 0.02 0.01 0.01 0.01 0.01 0.01 0.01 0.03 0.05 0.03
0.00 0.00 0.00 0.00 0.00 0.00 0.01 0.01 0.01 0.01 0.01 0.03 0.05 0.11 0.12 0.14 0.12 0.14 0.14 0.14 0.11 0.08 0.08 0.11 0.09 0.06 0.05 0.05 0.04 0.03 0.03 0.02 0.02 0.02 0.02 0.01 0.01 0.01 0.01 0.01 0.01 0.01 0.03 0.02
0.00 0.00 0.00 0.00 0.00 0.00 0.01 0.01 0.01 0.01 0.02 0.04 0.04 0.09 0.11 0.12 0.11 0.14 0.15 0.11 0.08 0.09 0.08 0.08 0.08 0.06 0.04 0.03 0.04 0.03 0.02 0.02 0.02 0.02 0.01 0.01 0.01 0.01 0.01 0.01 0.01 0.01 0.01 0.01
0.00 0.00 0.00 0.00 0.00 0.01 0.01 0.02 0.02 0.02 0.03 0.06 0.05 0.05 0.07 0.09 0.11 0.13 0.13 0.08 0.06 0.08 0.11 0.07 0.05 0.05 0.03 0.02 0.06 0.04 0.03 0.03 0.03 0.01 0.00 0.01 0.01 0.01 0.01 0.01 0.00 0.00 0.00 0.00
0.00 0.01 0.01 0.01 0.01 0.01 0.02 0.02 0.03 0.04 0.04 0.06 0.05 0.05 0.06 0.05 0.05 0.08 0.11 0.07 0.05 0.07 0.06 0.04 0.03 0.03 0.02 0.02 0.02 0.02 0.02 0.02 0.01 0.01 0.00 0.01 0.01 0.01 0.01 0.01 0.00 0.00 0.00 0.00
0.01 0.02 0.02 0.01 0.01 0.01 0.01 0.02 0.05 0.05 0.07 0.08 0.04 0.04 0.03 0.01 0.01 0.03 0.07 0.07 0.04 0.03 0.02 0.02 0.01 0.01 0.01 0.01 0.00 0.01 0.01 0.01 0.01 0.00 0.00 0.01 0.00 0.00 0.00 0.00 0.00 0.00 0.00 0.00
0.01 0.01 0.01 0.01 0.01 0.01 0.01 0.02 0.03 0.04 0.05 0.06 0.07 0.06 0.03 0.01 0.01 0.02 0.04 0.05 0.03 0.02 0.01 0.01 0.01 0.01 0.00 0.00 0.00 0.01 0.01 0.01 0.00 0.00 0.00 0.00 0.00 0.00 0.00 0.00 0.00 0.00 0.00 0.00
0.01 0.01 0.01 0.01 0.01 0.01 0.01 0.01 0.02 0.03 0.04 0.08 0.11 0.08 0.05 0.02 0.01 0.02 0.01 0.01 0.01 0.01 0.00 0.00 0.01 0.01 0.00 0.00 0.00 0.00 0.00 0.00 0.00 0.00 0.00 0.00 0.00 0.00 0.00 0.00 0.00 0.00 0.00 0.00
0.01 0.01 0.01 0.01 0.01 0.01 0.01 0.01 0.01 0.03 0.05 0.08 0.11 0.10 0.05 0.04 0.02 0.01 0.00 0.00 0.00 0.00 0.00 0.00 0.01 0.00 0.00 0.00 0.00 0.00 0.00 0.00 0.00 0.00 0.00 0.00 0.00 0.00 0.00 0.00 0.00 0.00 0.00 0.00
0.01 0.00 0.01 0.01 0.02 0.03 0.02 0.01 0.01 0.02 0.03 0.05 0.09 0.07 0.02 0.02 0.01 0.01 0.00 0.00 0.00 0.00 0.00 0.00 0.00 0.00 0.00 0.00 0.00 0.00 0.00 0.00 0.00 0.00 0.00 0.00 0.00 0.00 0.00 0.00 0.00 0.00 0.00 0.00
0.01 0.01 0.01 0.02 0.03 0.03 0.03 0.02 0.02 0.02 0.02 0.03 0.05 0.03 0.01 0.01 0.01 0.01 0.00 0.00 0.00 0.00 0.00 0.00 0.00 0.00 0.00 0.00 0.00 0.00 0.00 0.00 0.00 0.00 0.00 0.00 0.00 0.00 0.00 0.00 0.00 0.00 0.00 0.00
0.01 0.01 0.02 0.03 0.03 0.02 0.02 0.01 0.02 0.02 0.02 0.03 0.04 0.04 0.02 0.01 0.01 0.01 0.01 0.01 0.01 0.00 0.00 0.00 0.00 0.00 0.00 0.00 0.00 0.00 0.00 0.00 0.00 0.00 0.00 0.00 0.00 0.00 0.00 0.00 0.00 0.00 0.00 0.00
0.01 0.01 0.01 0.03 0.03 0.03 0.02 0.01 0.01 0.01 0.01 0.03 0.03 0.04 0.03 0.01 0.02 0.02 0.03 0.01 0.01 0.00 0.00 0.00 0.00 0.00 0.00 0.00 0.00 0.00 0.00 0.00 0.00 0.00 0.00 0.00 0.00 0.00 0.00 0.00 0.00 0.00 0.00 0.00
0.01 0.00 0.01 0.02 0.02 0.03 0.02 0.02 0.01 0.01 0.01 0.01 0.01 0.02 0.02 0.01 0.00 0.01 0.04 0.02 0.00 0.00 0.00 0.00 0.00 0.00 0.00 0.00 0.00 0.00 0.00 0.00 0.00 0.00 0.00 0.00 0.00 0.00 0.00 0.00 0.00 0.00 0.00 0.00
0.02 0.01 0.01 0.02 0.04 0.04 0.03 0.02 0.01 0.01 0.01 0.01 0.01 0.01 0.01 0.01 0.00 0.00 0.01 0.00 0.00 0.00 0.00 0.00 0.00 0.00 0.00 0.00 0.00 0.00 0.00 0.00 0.00 0.00 0.00 0.00 0.00 0.00 0.00 0.00 0.00 0.00 0.00 0.00
0.03 0.02 0.01 0.01 0.04 0.04 0.03 0.02 0.02 0.01 0.01 0.01 0.01 0.01 0.01 0.01 0.01 0.01 0.00 0.00 0.00 0.00 0.00 0.00 0.00 0.00 0.00 0.00 0.00 0.00 0.00 0.00 0.00 0.00 0.00 0.00 0.00 0.00 0.00 0.00 0.00 0.00 0.00 0.00
0.03 0.03 0.02 0.02 0.03 0.04 0.03 0.03 0.03 0.02 0.02 0.02 0.01 0.01 0.01 0.01 0.02 0.01 0.01 0.00 0.00 0.00 0.00 0.00 0.00 0.00 0.00 0.00 0.00 0.00 0.00 0.00 0.00 0.00 0.00 0.00 0.00 0.00 0.00 0.00 0.00 0.00 0.00 0.00
0.03 0.04 0.03 0.03 0.03 0.03 0.03 0.03 0.04 0.03 0.02 0.02 0.02 0.02 0.01 0.02 0.03 0.02 0.01 0.01 0.00 0.00 0.00 0.00 0.00 0.00 0.00 0.00 0.00 0.00 0.00 0.00 0.00 0.01 0.00 0.00 0.00 0.00 0.00 0.00 0.00 0.00 0.00 0.00
0.03 0.05 0.05 0.04 0.05 0.04 0.03 0.04 0.04 0.04 0.04 0.03 0.04 0.05 0.03 0.02 0.02 0.02 0.02 0.01 0.01 0.00 0.00 0.00 0.00 0.00 0.00 0.00 0.00 0.00 0.00 0.00 0.00 0.00 0.00 0.00 0.00 0.00 0.00 0.00 0.00 0.00 0.00 0.00
0.06 0.08 0.07 0.05 0.05 0.06 0.08 0.06 0.06 0.06 0.06 0.06 0.05 0.06 0.06 0.04 0.03 0.02 0.02 0.01 0.01 0.00 0.00 0.00 0.00 0.00 0.00 0.00 0.00 0.00 0.00 0.00 0.00 0.00 0.00 0.00 0.00 0.00 0.00 0.00 0.00 0.00 0.00 0.00
0.07 0.09 0.10 0.08 0.09 0.09 0.11 0.10 0.09 0.08 0.07 0.11 0.11 0.09 0.07 0.06 0.04 0.02 0.02 0.01 0.01 0.00 0.00 0.00 0.00 0.00 0.00 0.00 0.00 0.00 0.00 0.00 0.00 0.00 0.00 0.00 0.00 0.00 0.00 0.00 0.00 0.00 0.00 0.00
0.08 0.09 0.13 0.14 0.14 0.13 0.14 0.14 0.13 0.11 0.09 0.10 0.09 0.05 0.04 0.03 0.03 0.01 0.01 0.01 0.01 0.01 0.01 0.01 0.00 0.00 0.00 0.00 0.00 0.00 0.00 0.01 0.01 0.00 0.00 0.00 0.00 0.00 0.00 0.00 0.00 0.00 0.00 0.00
0.12 0.12 0.14 0.16 0.15 0.13 0.13 0.11 0.11 0.10 0.10 0.09 0.06 0.05 0.04 0.03 0.02 0.02 0.01 0.01 0.01 0.01 0.01 0.01 0.00 0.00 0.01 0.00 0.00 0.01 0.01 0.01 0.01 0.00 0.00 0.00 0.00 0.00 0.00 0.00 0.00 0.00 0.00 0.00
0.08 0.08 0.09 0.10 0.11 0.11 0.13 0.11 0.11 0.13 0.10 0.07 0.06 0.05 0.04 0.03 0.02 0.01 0.01 0.01 0.01 0.01 0.01 0.01 0.01 0.01 0.01 0.01 0.01 0.01 0.01 0.01 0.00 0.00 0.00 0.01 0.01 0.00 0.00 0.00 0.00 0.00 0.00 0.00
0.06 0.07 0.07 0.09 0.11 0.13 0.11 0.10 0.10 0.11 0.10 0.06 0.04 0.03 0.03 0.02 0.02 0.02 0.01 0.01 0.02 0.02 0.03 0.03 0.03 0.02 0.02 0.01 0.01 0.01 0.01 0.01 0.01 0.01 0.01 0.01 0.01 0.00 0.00 0.00 0.00 0.00 0.00 0.00
MSLP
1012.42 1012.94 1013.28 1013.45 1013.52 1013.54 1013.60 1013.74 1013.99 1014.34 1014.74 1015.15 1015.52 1015.79 1015.95 1016.00 1015.94 1015.83 1015.69 1015.54 1015.41 1015.30 1015.20 1015.08 1014.95 1014.78 1014.60 1014.43 1014.30 1014.24 1014.28 1014.43 1014.68 1015.00 1015.36 1015.69 1015.97 1016.14 1016.21 1016.17 1016.08 1015.96 1015.86 1015.83
1012.81 1013.19 1013.37 1013.41 1013.39 1013.40 1013.52 1013.77 1014.17 1014.66 1015.17 1015.64 1015.99 1016.19 1016.22 1016.11 1015.90 1015.65 1015.43 1015.25 1015.13 1015.07 1015.02 1014.96 1014.87 1014.72 1014.53 1014.34 1014.18 1014.12 1014.18 1014.37 1014.69 1015.09 1015.52 1015.91 1016.20 1016.37 1016.40 1016.31 1016.15 1015.98 1015.84 1015.79
1012.74 1012.97 1013.02 1012.97 1012.93 1013.00 1013.23 1013.67 1014.26 1014.94 1015.60 1016.14 1016.50 1016.62 1016.52 1016.24 1015.86 1015.48 1015.15 1014.92 1014.81 1014.78 1014.80 1014.81 1014.77 1014.67 1014.51 1014.33 1014.19 1014.14 1014.23 1014.47 1014.84 1015.29 1015.77 1016.19 1016.49 1016.64 1016.64 1016.50 1016.29 1016.06 1015.89 1015.82
1012.27 1012.37 1012.32 1012.24 1012.24 1012.43 1012.86 1013.53 1014.37 1015.27 1016.09 1016.72 1017.08 1017.12 1016.88 1016.42 1015.87 1015.32 1014.88 1014.59 1014.46 1014.47 1014.56 1014.65 1014.69 1014.65 1014.55 1014.41 1014.30 1014.28 1014.40 1014.67 1015.07 1015.55 1016.05 1016.47 1016.77 1016.90 1016.86 1016.69 1016.44 1016.19 1016.00 1015.92
1011.61 1011.59 1011.48 1011.42 1011.52 1011.89 1012.55 1013.49 1014.59 1015.71 1016.68 1017.39 1017.73 1017.68 1017.29 1016.65 1015.90 1015.19 1014.62 1014.26 1014.11 1014.14 1014.29 1014.46 1014.59 1014.64 1014.62 1014.54 1014.47 1014.48 1014.62 1014.90 1015.30 1015.78 1016.26 1016.67 1016.96 1017.07 1017.02 1016.84 1016.59 1016.33 1016.14 1016.06
1011.01 1010.89 1010.76 1010.75 1010.98 1011.54 1012.44 1013.63 1014.96 1016.26 1017.36 1018.10 1018.40 1018.23 1017.68 1016.85 1015.92 1015.04 1014.35 1013.91 1013.74 1013.80 1014.00 1014.26 1014.49 1014.63 1014.68 1014.66 1014.64 1014.67 1014.80 1015.06 1015.44 1015.88 1016.34 1016.72 1016.99 1017.11 1017.06 1016.90 1016.67 1016.45 1016.28 1016.21
1010.68 1010.49 1010.35 1010.41 1010.77 1011.51 1012.61 1013.99 1015.48 1016.89 1018.04 1018.75 1018.97 1018.67 1017.95 1016.95 1015.85 1014.83 1014.02 1013.52 1013.34 1013.42 1013.69 1014.03 1014.34 1014.57 1014.70 1014.74 1014.74 1014.77 1014.89 1015.11 1015.43 1015.83 1016.23 1016.60 1016.85 1016.98 1016.97 1016.86 1016.69 1016.52 1016.39 1016.35
1010.71 1010.48 1010.36 1010.48 1010.95 1011.81 1013.03 1014.51 1016.06 1017.48 1018.58 1019.21 1019.30 1018.86 1017.98 1016.82 1015.59 1014.47 1013.60 1013.07 1012.89 1013.02 1013.34 1013.76 1014.16 1014.47 1014.66 1014.74 1014.76 1014.78 1014.85 1015.01 1015.27 1015.61 1015.96 1016.30 1016.55 1016.71 1016.75 1016.71 1016.61 1016.52 1016.45 1016.44
1011.06 1010.83 1010.73 1010.91 1011.44 1012.35 1013.60 1015.06 1016.56 1017.88 1018.85 1019.32 1019.25 1018.66 1017.65 1016.39 1015.09 1013.93 1013.05 1012.54 1012.40 1012.57 1012.97 1013.46 1013.93 1014.30 1014.54 1014.65 1014.68 1014.68 1014.71 1014.81 1015.00 1015.26 1015.57 1015.88 1016.14 1016.33 1016.44 1016.48 1016.47 1016.46 1016.45 1016.48
1011.55 1011.35 1011.30 1011.52 1012.07 1012.96 1014.14 1015.48 1016.81 1017.93 1018.69 1018.97 1018.73 1018.00 1016.91 1015.61 1014.31 1013.18 1012.36 1011.92 1011.85 1012.10 1012.56 1013.12 1013.65 1014.08 1014.36 1014.50 1014.53 1014.50 1014.49 1014.53 1014.66 1014.86 1015.13 1015.41 1015.68 1015.91 1016.08 1016.20 1016.28 1016.34 1016.39 1016.45
1011.93 1011.81 1011.84 1012.09 1012.63 1013.44 1014.47 1015.60 1016.68 1017.54 1018.05 1018.11 1017.71 1016.88 1015.76 1014.50 1013.27 1012.25 1011.55 1011.22 1011.25 1011.59 1012.13 1012.75 1013.34 1013.81 1014.12 1014.28 1014.32 1014.29 1014.25 1014.25 1014.33 1014.49 1014.71 1014.98 1015.25 1015.51 1015.73 1015.91 1016.06 1016.17 1016.27 1016.34
1012.02 1012.03 1012.15 1012.45 1012.95 1013.65 1014.49 1015.37 1016.16 1016.72 1016.97 1016.82 1016.28 1015.41 1014.32 1013.16 1012.08 1011.22 1010.67 1010.49 1010.64 1011.07 1011.68 1012.34 1012.97 1013.47 1013.82 1014.01 1014.07 1014.06 1014.02 1014.00 1014.05 1014.18 1014.37 1014.62 1014.89 1015.16 1015.41 1015.63 1015.82 1015.97 1016.08 1016.16
1011.76 1011.92 1012.15 1012.49 1012.96 1013.54 1014.17 1014.79 1015.29 1015.58 1015.58 1015.26 1014.63 1013.77 1012.76 1011.74 1010.84 1010.17 1009.81 1009.77 1010.03 1010.54 1011.19 1011.89 1012.54 1013.07 1013.45 1013.68 1013.79 1013.81 1013.79 1013.79 1013.84 1013.96 1014.13 1014.35 1014.61 1014.88 1015.13 1015.37 1015.56 1015.72 1015.84 1015.91
1011.22 1011.54 1011.88 1012.27 1012.71 1013.17 1013.62 1014.00 1014.24 1014.28 1014.09 1013.64 1012.98 1012.16 1011.27 1010.41 1009.71 1009.23 1009.02 1009.11 1009.46 1010.00 1010.67 1011.37 1012.02 1012.57 1012.99 1013.27 1013.44 1013.52 1013.56 1013.61 1013.68 1013.79 1013.96 1014.16 1014.40 1014.64 1014.88 1015.10 1015.29 1015.44 1015.54 1015.60
1010.60 1011.05 1011.49 1011.91 1012.32 1012.69 1012.98 1013.16 1013.20 1013.05 1012.72 1012.20 1011.54 1010.79 1010.02 1009.33 1008.80 1008.47 1008.39 1008.55 1008.93 1009.47 1010.11 1010.78 1011.41 1011.97 1012.42 1012.76 1013.00 1013.17 1013.29 1013.40 1013.51 1013.65 1013.81 1014.00 1014.21 1014.42 1014.63 1014.82 1014.98 1015.11 1015.19 1015.23
1010.11 1010.65 1011.14 1011.59 1011.96 1012.25 1012.42 1012.46 1012.34 1012.07 1011.65 1011.11 1010.47 1009.80 1009.16 1008.60 1008.20 1007.97 1007.94 1008.12 1008.46 1008.95 1009.52 1010.12 1010.71 1011.25 1011.72 1012.12 1012.45 1012.71 1012.93 1013.13 1013.31 1013.48 1013.66 1013.84 1014.02 1014.20 1014.37 1014.52 1014.65 1014.74 1014.80 1014.81
1009.95 1010.50 1011.00 1011.43 1011.75 1011.97 1012.04 1011.98 1011.77 1011.44 1010.98 1010.44 1009.85 1009.26 1008.71 1008.25 1007.91 1007.72 1007.69 1007.81 1008.07 1008.44 1008.90 1009.40 1009.92 1010.44 1010.93 1011.38 1011.79 1012.16 1012.49 1012.77 1013.03 1013.25 1013.45 1013.63 1013.79 1013.94 1014.08 1014.19 1014.29 1014.35 1014.38 1014.37
1010.16 1010.66 1011.11 1011.47 1011.74 1011.88 1011.89 1011.76 1011.51 1011.15 1010.70 1010.20 1009.66 1009.14 1008.65 1008.24 1007.91 1007.70 1007.60 1007.61 1007.74 1007.96 1008.28 1008.66 1009.10 1009.57 1010.07 1010.57 1011.06 1011.52 1011.95 1012.33 1012.66 1012.94 1013.18 1013.37 1013.53 1013.66 1013.77 1013.85 1013.92 1013.96 1013.96 1013.93
1010.65 1011.04 1011.38 1011.65 1011.83 1011.91 1011.86 1011.71 1011.45 1011.11 1010.70 1010.25 1009.77 1009.30 1008.86 1008.45 1008.10 1007.82 1007.62 1007.50 1007.47 1007.53 1007.69 1007.95 1008.30 1008.73 1009.22 1009.75 1010.30 1010.84 1011.36 1011.83 1012.24 1012.58 1012.85 1013.06 1013.23 1013.35 1013.44 1013.51 1013.55 1013.57 1013.55 1013.49
1011.20 1011.45 1011.66 1011.81 1011.90 1011.92 1011.85 1011.69 1011.46 1011.16 1010.81 1010.42 1010.02 1009.59 1009.17 1008.76 1008.37 1008.01 1007.70 1007.44 1007.26 1007.18 1007.20 1007.34 1007.60 1007.97 1008.44 1008.99 1009.58 1010.19 1010.77 1011.31 1011.78 1012.17 1012.49 1012.73 1012.90 1013.03 1013.12 1013.17 1013.20 1013.19 1013.14 1013.06
1011.59 1011.68 1011.75 1011.80 1011.81 1011.77 1011.69 1011.56 1011.38 1011.15 1010.88 1010.58 1010.24 1009.87 1009.48 1009.06 1008.63 1008.21 1007.80 1007.43 1007.13 1006.92 1006.83 1006.88 1007.06 1007.39 1007.83 1008.38 1008.98 1009.62 1010.24 1010.82 1011.33 1011.76 1012.11 1012.38 1012.57 1012.71 1012.79 1012.84 1012.84 1012.81 1012.74 1012.63
1011.63 1011.59 1011.54 1011.49 1011.44 1011.38 1011.32 1011.23 1011.12 1010.98 1010.81 1010.60 1010.34 1010.03 1009.68 1009.28 1008.84 1008.37 1007.91 1007.48 1007.10 1006.81 1006.65 1006.62 1006.75 1007.03 1007.44 1007.96 1008.56 1009.19 1009.82 1010.41 1010.93 1011.38 1011.74 1012.02 1012.23 1012.37 1012.45 1012.48 1012.47 1012.41 1012.31 1012.16
1011.26 1011.11 1010.98 1010.88 1010.80 1010.75 1010.72 1010.71 1010.69 1010.65 1010.58 1010.46 1010.29 1010.06 1009.76 1009.39 1008.97 1008.51 1008.04 1007.59 1007.19 1006.88 1006.68 1006.62 1006.71 1006.94 1007.31 1007.79 1008.34 1008.94 1009.53 1010.10 1010.61 1011.04 1011.40 1011.67 1011.87 1012.00 1012.07 1012.08 1012.05 1011.96 1011.83 1011.65
1010.53 1010.34 1010.17 1010.05 1009.98 1009.97 1010.00 1010.06 1010.13 1010.20 1010.23 1010.21 1010.13 1009.98 1009.75 1009.44 1009.07 1008.66 1008.23 1007.81 1007.44 1007.14 1006.94 1006.88 1006.94 1007.14 1007.46 1007.87 1008.36 1008.88 1009.41 1009.91 1010.37 1010.76 1011.08 1011.33 1011.50 1011.61 1011.64 1011.63 1011.55 1011.43 1011.26 1011.05
1009.63 1009.43 1009.27 1009.17 1009.15 1009.19 1009.28 1009.43 1009.59 1009.74 1009.87 1009.94 1009.95 1009.87 1009.72 1009.49 1009.20 1008.87 1008.51 1008.16 1007.85 1007.60 1007.44 1007.38 1007.44 1007.60 1007.85 1008.19 1008.58 1009.01 1009.44 1009.85 1010.22 1010.54 1010.80 1010.99 1011.11 1011.17 1011.16 1011.10 1010.98 1010.81 1010.61 1010.37
1008.77 1008.61 1008.49 1008.43 1008.46 1008.56 1008.73 1008.94 1009.18 1009.41 1009.60 1009.75 1009.82 1009.83 1009.75 1009.60 1009.40 1009.16 1008.90 1008.65 1008.42 1008.25 1008.13 1008.10 1008.14 1008.26 1008.45 1008.70 1008.99 1009.29 1009.60 1009.90 1010.16 1010.38 1010.55 1010.66 1010.72 1010.71 1010.64 1010.51 1010.33 1010.11 1009.87 1009.60
Thickness
5794 5775 5762 5770 5775 5774 5772 5762 5755 5760 5769 5756 5744 5739 5738 5738 5733 5728 5724 5724 5724 5725 5732 5736 5739 5740 5740 5740 5738 5737 5737 5737 5736 5733 5731 5727 5725 5725 5724 5723 5721 5720 5718 5716
5772 5766 5786 5793 5791 5784 5775 5761 5755 5757 5765 5753 5739 5734 5738 5738 5734 5732 5729 5727 5727 5726 5730 5733 5735 5737 5737 5736 5736 5736 5736 5735 5734 5733 5731 5728 5725 5723 5721 5719 5718 5717 5715 5713
5765 5781 5801 5796 5786 5776 5771 5762 5759 5752 5752 5749 5737 5724 5730 5735 5738 5736 5735 5732 5732 5731 5731 5732 5734 5735 5736 5735 5735 5736 5734 5734 5732 5732 5729 5725 5722 5718 5715 5713 5713 5712 5711 5709
5778 5795 5797 5790 5784 5779 5761 5776 5772 5760 5740 5723 5730 5706 5721 5728 5729 5732 5733 5733 5733 5736 5736 5734 5734 5734 5735 5736 5736 5735 5734 5732 5731 5730 5726 5721 5716 5711 5710 5710 5709 5709 5708 5706
5776 5790 5789 5783 5787 5784 5769 5777 5767 5755 5736 5722 5722 5709 5713 5726 5722 5726 5731 5735 5736 5739 5738 5736 5737 5737 5738 5738 5736 5734 5732 5730 5729 5727 5724 5719 5714 5711 5709 5708 5706 5705 5704 5702
5786 5799 5796 5793 5797 5793 5781 5764 5752 5738 5725 5707 5715 5710 5710 5721 5728 5731 5735 5739 5740 5742 5741 5740 5740 5739 5738 5738 5736 5734 5731 5728 5727 5724 5720 5717 5713 5709 5706 5704 5701 5700 5698 5697
5771 5784 5795 5798 5783 5781 5773 5741 5716 5710 5699 5700 5718 5714 5716 5739 5746 5743 5741 5743 5745 5745 5742 5740 5739 5737 5737 5736 5735 5733 5729 5726 5724 5721 5718 5715 5712 5708 5705 5701 5699 5696 5694 5692
5749 5753 5783 5792 5783 5769 5766 5747 5716 5702 5695 5698 5714 5711 5728 5753 5757 5755 5751 5749 5749 5746 5745 5744 5743 5741 5739 5737 5735 5732 5727 5724 5722 5719 5716 5714 5711 5707 5704 5701 5698 5695 5691 5689
5748 5754 5789 5795 5796 5783 5763 5750 5746 5719 5707 5696 5705 5720 5738 5755 5753 5752 5750 5749 5748 5749 5748 5747 5745 5743 5741 5738 5735 5732 5727 5723 5720 5718 5715 5711 5709 5706 5703 5700 5697 5693 5690 5687
5765 5753 5777 5790 5790 5783 5774 5760 5735 5717 5698 5690 5701 5710 5718 5736 5743 5749 5749 5749 5751 5751 5750 5749 5747 5745 5742 5739 5736 5732 5728 5724 5720 5717 5714 5712 5708 5705 5702 5698 5694 5691 5688 5684
5772 5753 5760 5768 5763 5761 5762 5753 5738 5720 5713 5694 5687 5708 5749 5748 5752 5752 5754 5756 5756 5754 5752 5750 5748 5746 5743 5739 5735 5731 5726 5723 5719 5716 5714 5711 5707 5704 5700 5696 5693 5689 5685 5681
5770 5746 5737 5753 5770 5776 5767 5756 5740 5719 5713 5709 5700 5717 5769 5765 5763 5761 5760 5762 5761 5759 5756 5753 5749 5744 5741 5737 5734 5730 5726 5723 5720 5716 5713 5710 5706 5703 5699 5695 5692 5688 5683 5679
5768 5742 5722 5727 5740 5756 5756 5756 5746 5729 5715 5706 5702 5723 5769 5768 5766 5767 5766 5765 5762 5758 5754 5750 5746 5743 5740 5736 5733 5730 5727 5723 5720 5717 5712 5708 5704 5700 5697 5693 5689 5685 5680 5676
5771 5742 5728 5720 5729 5744 5746 5752 5750 5733 5714 5712 5720 5735 5754 5760 5762 5765 5767 5765 5762 5758 5754 5748 5744 5742 5740 5737 5734 5730 5727 5724 5721 5716 5711 5706 5703 5699 5695 5691 5687 5682 5677 5672
5761 5740 5744 5746 5754 5752 5750 5752 5752 5742 5736 5728 5736 5741 5755 5763 5767 5769 5769 5764 5760 5755 5751 5748 5744 5741 5738 5735 5733 5730 5727 5724 5720 5714 5709 5705 5702 5698 5693 5689 5684 5679 5674 5670
5752 5740 5741 5742 5752 5751 5749 5754 5755 5753 5751 5746 5747 5747 5766 5770 5769 5767 5765 5763 5758 5755 5753 5750 5746 5742 5739 5737 5733 5730 5726 5722 5718 5713 5708 5705 5700 5695 5690 5686 5681 5676 5671 5666
5740 5734 5726 5721 5737 5738 5731 5749 5750 5750 5754 5750 5743 5753 5764 5763 5763 5763 5764 5763 5760 5757 5754 5750 5748 5745 5742 5739 5735 5730 5725 5721 5715 5711 5707 5702 5697 5692 5688 5683 5677 5672 5666 5661
5736 5726 5715 5713 5719 5708 5734 5759 5760 5753 5751 5754 5755 5759 5763 5765 5768 5768 5768 5764 5761 5759 5756 5753 5750 5745 5742 5739 5735 5730 5724 5718 5713 5708 5703 5699 5694 5689 5684 5678 5673 5667 5662 5656
5738 5725 5710 5703 5702 5713 5736 5751 5753 5744 5738 5749 5750 5754 5759 5764 5761 5757 5764 5766 5765 5763 5760 5757 5753 5748 5742 5737 5732 5726 5719 5714 5709 5704 5700 5696 5691 5685 5679 5673 5668 5663 5657 5652
5729 5724 5709 5700 5697 5699 5724 5748 5759 5748 5727 5743 5748 5748 5750 5751 5735 5742 5759 5762 5761 5761 5759 5755 5750 5744 5738 5733 5728 5721 5714 5709 5705 5702 5698 5693 5687 5681 5675 5670 5664 5659 5653 5648
5710 5707 5702 5696 5693 5707 5732 5744 5748 5720 5721 5737 5742 5742 5743 5740 5741 5751 5756 5757 5758 5757 5754 5751 5745 5739 5735 5729 5723 5716 5710 5706 5704 5700 5694 5688 5683 5677 5671 5665 5660 5654 5648 5643
5700 5696 5695 5692 5688 5698 5731 5734 5726 5724 5733 5735 5737 5740 5741 5743 5747 5750 5751 5750 5750 5749 5747 5745 5739 5733 5729 5724 5718 5711 5706 5704 5699 5693 5687 5682 5676 5671 5667 5659 5654 5649 5643 5637
5702 5703 5699 5697 5700 5716 5724 5726 5729 5730 5729 5731 5732 5736 5739 5738 5737 5740 5741 5742 5743 5742 5740 5738 5733 5727 5722 5718 5713 5706 5702 5697 5691 5685 5680 5675 5670 5665 5660 5653 5648 5642 5636 5630
5707 5710 5701 5698 5705 5714 5720 5723 5728 5729 5729 5730 5730 5731 5731 5729 5729 5729 5731 5731 5731 5733 5731 5729 5724 5718 5712 5709 5705 5701 5696 5691 5684 5678 5672 5667 5662 5657 5653 5648 5643 5636 5631 5625
5704 5705 5696 5694 5703 5707 5713 5720 5724 5726 5727 5725 5724 5724 5722 5721 5720 5720 5719 5719 5720 5721 5720 5718 5713 5708 5704 5700 5695 5691 5687 5682 5675 5670 5665 5660 5655 5650 5645 5641 5637 5633 5629 5624
5705 5703 5697 5695 5703 5703 5707 5716 5720 5717 5715 5715 5713 5712 5713 5713 5711 5710 5710 5710 5709 5707 5707 5704 5701 5696 5692 5688 5685 5682 5678 5673 5666 5659 5655 5650 5646 5641 5637 5633 5631 5629 5625 5621